Simultaneous Nadir Overpasses (SNOs) Predictions

Prediction of SNOs between FY3D and NOAA-19 Satellite Orbit:

Table of predicted SNOs for the next 14.0 days since TLE Epoch: 3/30/2024
Index Date (FY3D) Time (FY3D) Lat,Lon (FY3D) SZA (FY3D ) Date (NOAA-19) Time (NOAA-19) Lat,Lon (NOAA-19) SZA (NOAA-19 ) Distance(km) Time Diff (sec)
1 03/30/2024 07:07:17 75.92, 71.14 71.87 03/30/2024 07:06:06 75.90, 69.68 71.89 39.53 71
2 03/30/2024 07:58:06 -76.13,-122.31 107.92 03/30/2024 07:56:57 -76.10,-122.32 107.95 3.50 69
3 03/30/2024 08:48:53 76.15, 44.95 72.08 03/30/2024 08:47:59 76.14, 45.04 72.08 2.64 54
4 03/30/2024 09:39:37 -76.14,-147.70 107.94 03/30/2024 09:38:55 -76.11,-147.77 107.96 3.24 42
5 03/30/2024 10:30:24 76.15, 19.56 72.06 03/30/2024 10:29:57 76.15, 19.59 72.06 0.85 27
6 03/30/2024 11:21:08 -76.14,-173.09 107.97 03/30/2024 11:20:52 -76.17,-173.06 107.94 3.28 16
7 03/30/2024 12:11:55 76.15, -5.83 72.04 03/30/2024 12:11:55 76.16, -5.86 72.04 0.93 0
8 03/30/2024 13:02:40 -76.19, 161.36 107.94 03/30/2024 13:02:50 -76.18, 161.50 107.96 3.76 10
9 03/30/2024 13:53:26 76.16, -31.22 72.01 03/30/2024 13:53:53 76.17, -31.31 72.02 2.71 27
10 03/30/2024 14:44:11 -76.19, 135.97 107.97 03/30/2024 14:44:48 -76.19, 136.05 107.97 2.10 37
11 03/30/2024 15:34:58 76.21, -56.77 72.04 03/30/2024 15:35:51 76.18, -56.76 72.01 2.99 53
12 03/30/2024 16:25:42 -76.20, 110.58 107.99 03/30/2024 16:26:46 -76.20, 110.60 107.99 0.94 64
13 03/30/2024 17:16:34 76.43, -83.00 72.25 03/30/2024 17:17:44 76.41, -81.37 72.20 42.52 70



Historial Predications of SNOs between FY3D and NOAA-19
